Simultaneous Nadir Overpasses (SNOs) Predictions

Prediction of SNOs between FY3D and AQUA Satellite Orbit:

Table of predicted SNOs for the next 14.0 days since TLE Epoch: 11/19/2022
Index Date (FY3D) Time (FY3D) Lat,Lon (FY3D) SZA (FY3D ) Date (AQUA) Time (AQUA) Lat,Lon (AQUA) SZA (AQUA ) Distance(km) Time Diff (sec)
1 11/21/2022 10:41:50 77.47, 4.45 97.59 11/21/2022 10:42:23 77.47, 4.41 97.59 0.89 33
2 11/21/2022 11:32:23 -76.97, 173.96 82.98 11/21/2022 11:31:37 -76.96, 174.06 82.99 2.69 46
3 11/24/2022 01:18:24 77.46, 145.35 98.15 11/24/2022 01:19:02 77.47, 145.26 98.15 2.39 38
4 11/24/2022 02:08:57 -76.96, -45.13 82.43 11/24/2022 02:08:16 -76.96, -45.07 82.43 1.53 41
5 11/26/2022 15:55:01 77.59, -74.37 98.81 11/26/2022 15:55:43 77.59, -74.37 98.80 0.19 42
6 11/26/2022 16:45:29 -76.88, 96.11 82.02 11/26/2022 16:44:53 -76.88, 96.04 82.00 2.04 36
7 11/29/2022 06:31:36 77.64, 66.28 99.34 11/29/2022 06:32:22 77.64, 66.28 99.33 0.19 46
8 11/29/2022 07:22:03 -76.92,-123.20 81.49 11/29/2022 07:21:31 -76.93,-123.27 81.48 1.90 32
9 12/01/2022 21:08:08 77.61,-152.69 99.74 12/01/2022 21:08:58 77.62,-152.79 99.74 2.57 50



Historial Predications of SNOs between FY3D and AQUA
